M I D A S
Marine Information and Data Acquisition System
Tripno 1025 of the Zeeleeuw from 2006-01-19 07:34:41 to 2006-01-19 16:23:26
Back to CruiseResearch ActivitiesStationsMapUnderway DataData graphs

EquipmentUnitsComment
TimeDGPSUTC
LatitudeDGPSDM.mWGS84
LongitudeDGPSDM.mWGS84
HeadingGyrodeg 
SOGDGPSknotsSpeed over ground
COGDGPSdegCourse over ground
DepthEcho soundermeters200 kHz
Missing or incorrect values are displayed as -999
Navigation data collected by the RV Zeeleeuw from 2006-01-19 07:34:12 to 2006-01-19 16:40:00
                                                                                    Next 1000 lines
Time Latitude Longitude Heading SOG COG Depth
2006-01-19 07:34:22 51°13.599 2°56.097 125.4 0.1 122 5.5
2006-01-19 07:34:27 51°13.599 2°56.097 125.5 -999 21 5.5
2006-01-19 07:34:32 51°13.599 2°56.097 125.5 -999 36 5.4
2006-01-19 07:34:37 51°13.599 2°56.097 125.5 -999 289 5.4
2006-01-19 07:34:42 51°13.599 2°56.097 125.7 -999 298 5.4
2006-01-19 07:34:47 51°13.599 2°56.097 125.7 -999 314 5.4
2006-01-19 07:34:52 51°13.599 2°56.097 125.8 -999 138 5.3
2006-01-19 07:34:57 51°13.599 2°56.097 125.5 0.1 151 5.4
2006-01-19 07:35:02 51°13.599 2°56.098 125.1 0.1 139 5.4
2006-01-19 07:35:07 51°13.599 2°56.098 124.5 0.1 152 5.4
2006-01-19 07:35:12 51°13.599 2°56.097 123.8 0.1 164 5.4
2006-01-19 07:35:17 51°13.599 2°56.097 123.2 -999 186 5.4
2006-01-19 07:35:22 51°13.599 2°56.098 122.6 -999 188 5.4
2006-01-19 07:35:27 51°13.599 2°56.097 122.3 0.1 196 5.4
2006-01-19 07:35:32 51°13.599 2°56.097 122 -999 178 5.4
2006-01-19 07:35:37 51°13.599 2°56.097 121.7 -999 200 5.4
2006-01-19 07:35:42 51°13.599 2°56.097 121.2 -999 244 5.4
2006-01-19 07:35:47 51°13.599 2°56.097 121 -999 316 5.4
2006-01-19 07:35:52 51°13.599 2°56.097 120.7 0.1 153 5.4
2006-01-19 07:35:57 51°13.599 2°56.097 120.4 -999 138 5.3
2006-01-19 07:36:02 51°13.599 2°56.098 119.9 0.1 170 5.4
2006-01-19 07:36:07 51°13.599 2°56.098 119.3 0.1 180 5.4
2006-01-19 07:36:12 51°13.597 2°56.097 118.8 0.1 191 5.3
2006-01-19 07:36:17 51°13.597 2°56.098 118.2 0.1 169 5.4
2006-01-19 07:36:22 51°13.598 2°56.097 117.5 0.1 184 5.4
2006-01-19 07:36:27 51°13.599 2°56.097 116.9 0.1 255 5.4
2006-01-19 07:36:32 51°13.599 2°56.097 116.5 0.1 279 5.5
2006-01-19 07:36:37 51°13.599 2°56.096 116.3 0.3 283 5.6
2006-01-19 07:36:42 51°13.599 2°56.095 116.3 0.5 289 5.5
2006-01-19 07:36:47 51°13.599 2°56.093 116.3 0.7 291 5.6
2006-01-19 07:36:52 51°13.6 2°56.091 116.8 0.9 295 5.8
2006-01-19 07:36:57 51°13.601 2°56.089 117.1 1.1 295 6.2
2006-01-19 07:37:02 51°13.602 2°56.086 117.6 1.2 295 6.2
2006-01-19 07:37:06 51°13.603 2°56.084 118 1.4 296 4.8
2006-01-19 07:37:13 51°13.604 2°56.08 118.2 1.6 298 32
2006-01-19 07:37:17 51°13.605 2°56.077 118.3 1.6 298 40
2006-01-19 07:37:22 51°13.606 2°56.074 118.3 1.8 297 49
2006-01-19 07:37:26 51°13.607 2°56.071 118.3 1.9 298 56.3
2006-01-19 07:37:32 51°13.608 2°56.066 118.4 2.1 297 50.4
2006-01-19 07:37:37 51°13.61 2°56.061 118.4 2.2 297 -999
2006-01-19 07:37:42 51°13.612 2°56.057 118.4 2.3 297 54.9
2006-01-19 07:37:47 51°13.613 2°56.052 118.4 2.4 297 64.5
2006-01-19 07:37:52 51°13.615 2°56.047 118.4 2.5 297 40.2
2006-01-19 07:37:57 51°13.617 2°56.042 118.2 2.6 296 42.6
2006-01-19 07:38:02 51°13.618 2°56.036 118 2.6 296 33.8
2006-01-19 07:38:07 51°13.62 2°56.031 117.8 2.6 296 33.8
2006-01-19 07:38:12 51°13.622 2°56.026 117.8 2.7 295 31.4
2006-01-19 07:38:17 51°13.623 2°56.021 117.8 2.6 296 36.5
2006-01-19 07:38:22 51°13.625 2°56.015 118 2.7 294 38.8
2006-01-19 07:38:26 51°13.626 2°56.01 118 2.9 295 65.2
2006-01-19 07:38:32 51°13.628 2°56.002 118 3.4 295 54.3
2006-01-19 07:38:37 51°13.631 2°55.994 118.3 3.7 295 47
2006-01-19 07:38:42 51°13.633 2°55.986 118.4 4.1 295 33.8
2006-01-19 07:38:46 51°13.635 2°55.979 118.8 4.3 296 46.6
2006-01-19 07:38:52 51°13.639 2°55.968 119 4.5 296 -999
2006-01-19 07:38:57 51°13.642 2°55.959 119.2 4.8 296 50.4
2006-01-19 07:39:02 51°13.645 2°55.949 119.3 5 296 27.6
2006-01-19 07:39:07 51°13.648 2°55.938 119.6 5.1 296 34.9
2006-01-19 07:39:12 51°13.652 2°55.928 119.9 5.3 297 33.6
2006-01-19 07:39:17 51°13.655 2°55.917 120.2 5.5 297 71.3
2006-01-19 07:39:22 51°13.659 2°55.906 120.7 5.6 298 56.1
2006-01-19 07:39:27 51°13.662 2°55.895 121.2 5.7 298 33.1
2006-01-19 07:39:32 51°13.666 2°55.884 121.5 5.8 298 54.3
2006-01-19 07:39:37 51°13.67 2°55.872 121.2 5.7 298 73.9
2006-01-19 07:39:42 51°13.673 2°55.861 120 5.7 297 39.6
2006-01-19 07:39:47 51°13.676 2°55.85 118.4 5.7 297 44.1
2006-01-19 07:39:52 51°13.679 2°55.839 116.6 5.3 294 45.6
2006-01-19 07:39:57 51°13.682 2°55.829 114.5 5.2 293 52.1
2006-01-19 07:40:02 51°13.684 2°55.819 112.1 4.9 290 34.6
2006-01-19 07:40:07 51°13.686 2°55.809 109.9 4.8 289 37.4
2006-01-19 07:40:12 51°13.688 2°55.799 108 4.6 288 47.6
2006-01-19 07:40:17 51°13.69 2°55.79 106.2 4.3 288 33.8
2006-01-19 07:40:22 51°13.691 2°55.782 104.6 4 286 53.3
2006-01-19 07:40:27 51°13.693 2°55.774 103 3.7 285 43.6
2006-01-19 07:40:32 51°13.694 2°55.767 100.8 3.4 285 51.6
2006-01-19 07:40:37 51°13.695 2°55.761 98.3 3 283 55.4
2006-01-19 07:40:42 51°13.695 2°55.756 95.5 2.3 284 55.7
2006-01-19 07:40:47 51°13.696 2°55.753 91.9 1.7 286 69.8
2006-01-19 07:40:52 51°13.696 2°55.753 86.6 0.7 328 71.5
2006-01-19 07:40:57 51°13.697 2°55.753 81.2 0.6 11 72.4
2006-01-19 07:41:02 51°13.699 2°55.754 71.5 0.9 17 40.2
2006-01-19 07:41:07 51°13.7 2°55.755 64.6 0.9 29 12.7
2006-01-19 07:41:12 51°13.701 2°55.756 58.7 1.2 22 12.9
2006-01-19 07:41:17 51°13.703 2°55.758 53.3 1.5 31 12.9
2006-01-19 07:41:22 51°13.706 2°55.759 47.2 1.9 24 13
2006-01-19 07:41:27 51°13.708 2°55.761 40.4 2 25 12.9
2006-01-19 07:41:32 51°13.711 2°55.762 34.1 1.9 15 13.1
2006-01-19 07:41:37 51°13.713 2°55.763 30.1 1.7 13 13
2006-01-19 07:41:42 51°13.715 2°55.763 27.4 1.2 8 12.8
2006-01-19 07:41:47 51°13.716 2°55.763 24.5 1 6 12.6
2006-01-19 07:41:52 51°13.716 2°55.763 21.8 0.4 348 12.5
2006-01-19 07:41:57 51°13.716 2°55.762 19.7 0.3 279 12.5
2006-01-19 07:42:02 51°13.716 2°55.761 18.1 0.4 235 12.6
2006-01-19 07:42:06 51°13.715 2°55.761 16.8 0.8 210 12.7
2006-01-19 07:42:12 51°13.713 2°55.76 15.8 1.3 203 12.9
2006-01-19 07:42:17 51°13.711 2°55.758 15.2 1.6 199 45.6
2006-01-19 07:42:22 51°13.709 2°55.757 14.8 1.7 201 33.1
2006-01-19 07:42:26 51°13.707 2°55.756 14.5 1.6 200 44.5
2006-01-19 07:42:32 51°13.705 2°55.755 14.5 1.4 204 43.9
2006-01-19 07:42:38 51°13.704 2°55.754 14.3 0.9 203 42.8
2006-01-19 07:42:42 51°13.703 2°55.753 11.8 0.7 214 -999
2006-01-19 07:42:47 51°13.704 2°55.753 9.4 0.2 285 178.3
2006-01-19 07:42:52 51°13.704 2°55.752 5.3 0.5 325 84.7
2006-01-19 07:42:57 51°13.706 2°55.751 0.4 0.8 342 47.4
2006-01-19 07:43:02 51°13.708 2°55.75 355 1.2 340 32.1
2006-01-19 07:43:07 51°13.71 2°55.748 349.2 1.6 339 44.8
2006-01-19 07:43:12 51°13.713 2°55.746 343.8 2 334 51.8
2006-01-19 07:43:17 51°13.716 2°55.743 339.1 2.4 332 12.6
2006-01-19 07:43:22 51°13.719 2°55.739 335.2 2.8 327 11.5
2006-01-19 07:43:27 51°13.723 2°55.736 333 3 327 11
2006-01-19 07:43:32 51°13.726 2°55.731 330.7 3.3 324 11
2006-01-19 07:43:37 51°13.731 2°55.726 329.4 3.7 324 10.2
2006-01-19 07:43:42 51°13.735 2°55.72 328.8 4.1 322 9.7
2006-01-19 07:43:47 51°13.74 2°55.715 328.7 4.3 322 9.7
2006-01-19 07:43:52 51°13.745 2°55.708 329.1 4.6 323 9.6
2006-01-19 07:43:57 51°13.751 2°55.702 329.8 4.7 322 9.4
2006-01-19 07:44:02 51°13.756 2°55.695 330.7 4.9 323 9.2
2006-01-19 07:44:07 51°13.762 2°55.689 331.9 5 326 9.4
2006-01-19 07:44:12 51°13.768 2°55.682 333.3 5.2 330 9.4
2006-01-19 07:44:17 51°13.775 2°55.677 335.3 5.3 332 9.5
2006-01-19 07:44:22 51°13.782 2°55.672 337.9 5.3 335 9.6
2006-01-19 07:44:27 51°13.788 2°55.667 339.7 4.2 336 9.6
2006-01-19 07:44:32 51°13.796 2°55.662 340.4 5.5 337 9.5
2006-01-19 07:44:37 51°13.803 2°55.657 340 5.7 335 9.4
2006-01-19 07:44:42 51°13.81 2°55.652 339.6 5.8 336 9.5
2006-01-19 07:44:46 51°13.816 2°55.648 339.6 5.8 336 9.4
2006-01-19 07:44:52 51°13.825 2°55.641 339.8 6 336 9.4
2006-01-19 07:44:57 51°13.833 2°55.636 340.3 6.1 337 9.4
2006-01-19 07:45:02 51°13.841 2°55.63 340.4 6.2 336 9.3
2006-01-19 07:45:07 51°13.849 2°55.624 340.1 6.3 336 9.2
2006-01-19 07:45:12 51°13.857 2°55.618 340.1 6.3 336 9.1
2006-01-19 07:45:17 51°13.865 2°55.612 340.2 6.4 336 8.9
2006-01-19 07:45:22 51°13.873 2°55.606 340.3 6.5 335 9.1
2006-01-19 07:45:27 51°13.881 2°55.6 340.4 6.5 336 9.1
2006-01-19 07:45:32 51°13.89 2°55.594 340.4 6.6 335 9.1
2006-01-19 07:45:37 51°13.898 2°55.588 340.3 6.7 336 9.1
2006-01-19 07:45:42 51°13.906 2°55.583 340.2 6.7 335 9.3
2006-01-19 07:45:47 51°13.915 2°55.577 340.2 6.7 336 9.3
2006-01-19 07:45:52 51°13.923 2°55.571 340.6 6.7 335 9.3
2006-01-19 07:45:57 51°13.932 2°55.565 340.7 6.7 335 9.3
2006-01-19 07:46:02 51°13.94 2°55.558 340.4 6.7 335 9.3
2006-01-19 07:46:07 51°13.949 2°55.552 340.4 6.8 335 9.2
2006-01-19 07:46:12 51°13.958 2°55.546 340.8 6.8 335 9.2
2006-01-19 07:46:17 51°13.966 2°55.539 341 6.8 336 9.2
2006-01-19 07:46:22 51°13.975 2°55.533 341 6.8 335 9.2
2006-01-19 07:46:26 51°13.982 2°55.528 340.6 6.8 336 9.2
2006-01-19 07:46:32 51°13.992 2°55.52 340.3 6.8 335 9.2
2006-01-19 07:46:37 51°14.001 2°55.514 340.4 6.9 336 9.3
2006-01-19 07:46:42 51°14.009 2°55.508 340.5 6.8 335 9.3
2006-01-19 07:46:47 51°14.018 2°55.502 340.5 6.8 336 9.3
2006-01-19 07:46:52 51°14.027 2°55.495 340.5 6.9 335 9.2
2006-01-19 07:46:57 51°14.035 2°55.489 340.4 6.8 336 9.3
2006-01-19 07:47:02 51°14.044 2°55.483 340.2 6.9 335 9.2
2006-01-19 07:47:07 51°14.052 2°55.476 339.6 6.8 335 9.2
2006-01-19 07:47:12 51°14.061 2°55.47 339.5 6.8 334 9.3
2006-01-19 07:47:17 51°14.069 2°55.464 339.5 6.8 334 9.4
2006-01-19 07:47:22 51°14.078 2°55.457 339.3 6.8 334 9.3
2006-01-19 07:47:27 51°14.086 2°55.45 339.1 6.8 333 9.4
2006-01-19 07:47:32 51°14.094 2°55.443 339.1 6.9 333 9.4
2006-01-19 07:47:37 51°14.103 2°55.436 338.4 7 333 9.4
2006-01-19 07:47:42 51°14.112 2°55.428 338.1 7.2 333 9.4
2006-01-19 07:47:47 51°14.121 2°55.421 338.1 7.4 333 9.4
2006-01-19 07:47:52 51°14.131 2°55.413 337.5 7.6 332 9.4
2006-01-19 07:47:57 51°14.14 2°55.404 336.7 7.8 331 9.4
2006-01-19 07:48:02 51°14.15 2°55.395 336.1 7.9 330 9.4
2006-01-19 07:48:07 51°14.16 2°55.386 335.9 8 330 9.4
2006-01-19 07:48:12 51°14.169 2°55.377 334.9 8.1 328 9.4
2006-01-19 07:48:17 51°14.179 2°55.367 333.6 8.2 327 9.4
2006-01-19 07:48:22 51°14.188 2°55.357 332.4 8.3 326 9.4
2006-01-19 07:48:26 51°14.196 2°55.348 331.3 8.4 325 9.4
2006-01-19 07:48:32 51°14.208 2°55.335 330.1 8.5 324 9.4
2006-01-19 07:48:37 51°14.217 2°55.324 329.4 8.5 323 9.4
2006-01-19 07:48:42 51°14.226 2°55.312 328.5 8.6 322 9.4
2006-01-19 07:48:47 51°14.236 2°55.3 327.7 8.5 321 9.4
2006-01-19 07:48:52 51°14.244 2°55.288 325.9 8.6 319 9.4
2006-01-19 07:48:57 51°14.253 2°55.275 324.4 8.6 317 9.8
2006-01-19 07:49:02 51°14.262 2°55.261 322.1 8.6 316 9.8
2006-01-19 07:49:07 51°14.27 2°55.247 320.5 8.6 314 9.3
2006-01-19 07:49:13 51°14.279 2°55.23 318.6 8.6 312 9.3
2006-01-19 07:49:17 51°14.286 2°55.218 316.8 8.6 310 9.4
2006-01-19 07:49:22 51°14.293 2°55.204 316.1 8.7 311 9.4
2006-01-19 07:49:26 51°14.299 2°55.192 315.3 8.6 309 9.4
2006-01-19 07:49:32 51°14.308 2°55.174 314.4 8.7 309 9.4
2006-01-19 07:49:37 51°14.316 2°55.159 314 8.6 308 9.5
2006-01-19 07:49:42 51°14.323 2°55.144 313.9 8.9 308 9.5
2006-01-19 07:49:46 51°14.33 2°55.131 313.9 9 308 9.5
2006-01-19 07:49:52 51°14.339 2°55.111 313.7 9.3 307 9.5
2006-01-19 07:49:57 51°14.347 2°55.095 313.5 9.4 308 9.5
2006-01-19 07:50:02 51°14.355 2°55.079 313.9 9.5 308 9.6
2006-01-19 07:50:07 51°14.364 2°55.062 314.4 9.6 309 9.7
2006-01-19 07:50:12 51°14.372 2°55.044 314.6 9.8 307 9.7
2006-01-19 07:50:17 51°14.38 2°55.026 312.5 9.9 304 9.6
2006-01-19 07:50:23 51°14.388 2°55.003 309.3 10 300 9.4
2006-01-19 07:50:27 51°14.393 2°54.987 305.5 10.1 297 9.4
2006-01-19 07:50:32 51°14.399 2°54.966 302.6 10.2 295 9.4
2006-01-19 07:50:37 51°14.404 2°54.946 300.6 10.2 293 9.5
2006-01-19 07:50:42 51°14.41 2°54.925 299.7 10.3 293 9.5
2006-01-19 07:50:47 51°14.415 2°54.903 299.2 10.3 292 9.5
2006-01-19 07:50:53 51°14.421 2°54.877 299 10.5 291 9.5
2006-01-19 07:50:57 51°14.425 2°54.859 298.3 10.7 289 9.4
2006-01-19 07:51:02 51°14.429 2°54.836 295.7 10.9 286 9.4
2006-01-19 07:51:07 51°14.433 2°54.812 292.8 11 284 9.5
2006-01-19 07:51:13 51°14.437 2°54.783 290.5 11.3 282 9.4
2006-01-19 07:51:17 51°14.439 2°54.762 288.6 11.5 280 9.3
2006-01-19 07:51:22 51°14.441 2°54.737 286.6 11.8 278 9.2
2006-01-19 07:51:27 51°14.443 2°54.71 285.6 12.1 278 9.2
2006-01-19 07:51:33 51°14.447 2°54.677 285.2 12.4 279 9.1
2006-01-19 07:51:37 51°14.449 2°54.655 285.9 12.6 280 9.1
2006-01-19 07:51:42 51°14.451 2°54.627 285.9 12.8 278 9.1
2006-01-19 07:51:47 51°14.454 2°54.599 285.6 13 279 9
2006-01-19 07:51:52 51°14.457 2°54.57 285.5 13 278 9.1
2006-01-19 07:51:57 51°14.459 2°54.542 285.1 13.1 277 9.1
2006-01-19 07:52:02 51°14.46 2°54.513 283.8 13.2 275 9.1
2006-01-19 07:52:07 51°14.462 2°54.483 281.4 13.2 274 9.1
2006-01-19 07:52:12 51°14.463 2°54.454 280.1 13.3 274 9
2006-01-19 07:52:17 51°14.465 2°54.425 280.7 13.2 276 9
2006-01-19 07:52:22 51°14.468 2°54.396 283.3 13.2 278 9.1
2006-01-19 07:52:27 51°14.471 2°54.367 286.2 13.3 280 9.3
2006-01-19 07:52:32 51°14.474 2°54.338 286.6 13.3 278 9.3
2006-01-19 07:52:37 51°14.475 2°54.309 284.1 13.2 275 9.3
2006-01-19 07:52:42 51°14.475 2°54.279 278.7 13.3 271 9.4
2006-01-19 07:52:47 51°14.472 2°54.251 274.2 13.2 265 9.5
2006-01-19 07:52:52 51°14.469 2°54.222 269.2 13.1 260 9.1
2006-01-19 07:52:56 51°14.466 2°54.2 263.7 13.1 257 8.9
2006-01-19 07:53:02 51°14.459 2°54.167 259.6 13 252 8.9
2006-01-19 07:53:07 51°14.452 2°54.14 256.1 13 248 8.9
2006-01-19 07:53:12 51°14.444 2°54.114 252.4 13 244 8.8
2006-01-19 07:53:17 51°14.435 2°54.09 248 13 242 8.8
2006-01-19 07:53:22 51°14.425 2°54.065 244.3 13 238 8.8
2006-01-19 07:53:27 51°14.415 2°54.041 241.9 13 237 8.8
2006-01-19 07:53:32 51°14.406 2°54.017 240.6 13.1 237 8.8
2006-01-19 07:53:37 51°14.395 2°53.993 240.3 13.2 237 8.8
2006-01-19 07:53:42 51°14.386 2°53.968 239.8 13.2 237 8.8
2006-01-19 07:53:47 51°14.376 2°53.944 240.3 13.2 237 8.8
2006-01-19 07:53:52 51°14.366 2°53.919 241.3 13.2 239 8.8
2006-01-19 07:53:57 51°14.357 2°53.893 242.2 13.3 239 8.8
2006-01-19 07:54:02 51°14.348 2°53.868 243.4 13.3 241 8.8
2006-01-19 07:54:07 51°14.339 2°53.842 244.2 13.3 240 8.7
2006-01-19 07:54:12 51°14.33 2°53.816 244.6 13.4 242 8.7
2006-01-19 07:54:17 51°14.321 2°53.791 245.3 13.3 241 8.7
2006-01-19 07:54:22 51°14.312 2°53.765 245.3 13.4 241 8.8
2006-01-19 07:54:27 51°14.303 2°53.739 245.3 13.3 241 8.8
2006-01-19 07:54:33 51°14.293 2°53.708 245.1 13.4 241 8.7
2006-01-19 07:54:37 51°14.285 2°53.688 244.6 13.4 240 8.7
2006-01-19 07:54:42 51°14.276 2°53.662 244 13.3 240 8.7
2006-01-19 07:54:46 51°14.268 2°53.642 243.1 13.3 238 8.8
2006-01-19 07:54:52 51°14.256 2°53.613 241.6 13.3 238 8.7
2006-01-19 07:54:57 51°14.246 2°53.588 241.3 13.4 237 8.7
2006-01-19 07:55:02 51°14.236 2°53.563 241.4 13.4 238 8.7
2006-01-19 07:55:06 51°14.228 2°53.543 241.6 13.4 238 8.8
2006-01-19 07:55:12 51°14.217 2°53.512 242.4 13.4 239 8.7
2006-01-19 07:55:17 51°14.207 2°53.486 243.5 13.4 240 8.8
2006-01-19 07:55:22 51°14.198 2°53.461 244.4 13.4 241 8.8
2006-01-19 07:55:27 51°14.189 2°53.435 245.3 13.4 241 8.8
2006-01-19 07:55:32 51°14.18 2°53.409 245.7 13.4 241 8.9
2006-01-19 07:55:37 51°14.172 2°53.382 245.8 13.4 241 8.8
2006-01-19 07:55:42 51°14.163 2°53.357 245.4 13.4 241 8.9
2006-01-19 07:55:47 51°14.153 2°53.331 245.4 13.4 241 8.9
2006-01-19 07:55:53 51°14.142 2°53.3 244.5 13.4 239 8.9
2006-01-19 07:55:57 51°14.134 2°53.28 243.5 13.4 239 9
2006-01-19 07:56:02 51°14.124 2°53.255 243.1 13.4 238 9
2006-01-19 07:56:06 51°14.116 2°53.235 242.2 13.5 238 9
2006-01-19 07:56:12 51°14.105 2°53.205 242.4 13.4 238 9.1
2006-01-19 07:56:16 51°14.097 2°53.184 242.4 13.3 238 9.1
2006-01-19 07:56:22 51°14.085 2°53.155 241.7 13.4 237 9.1
2006-01-19 07:56:27 51°14.075 2°53.129 241.6 13.4 238 9.2
2006-01-19 07:56:32 51°14.065 2°53.104 241.9 13.5 238 9.2
2006-01-19 07:56:37 51°14.056 2°53.078 242.4 13.5 240 9.2
2006-01-19 07:56:42 51°14.046 2°53.053 243.4 13.5 239 9.2
2006-01-19 07:56:47 51°14.038 2°53.026 243.9 13.5 241 9.3
2006-01-19 07:56:52 51°14.028 2°53 245.3 13.5 241 9.3
2006-01-19 07:56:57 51°14.02 2°52.974 245.3 13.5 241 9.3
2006-01-19 07:57:02 51°14.01 2°52.948 245.6 13.4 240 9.3
2006-01-19 07:57:07 51°14.001 2°52.923 244.7 13.4 240 9.4
2006-01-19 07:57:13 51°13.989 2°52.892 244.3 13.4 239 9.4
2006-01-19 07:57:17 51°13.981 2°52.872 243.1 13.4 237 9.4
2006-01-19 07:57:22 51°13.971 2°52.848 241.8 13.4 237 9.4
2006-01-19 07:57:27 51°13.961 2°52.823 240.5 13.3 236 9.4
2006-01-19 07:57:32 51°13.95 2°52.8 240.2 13.3 236 9.4
2006-01-19 07:57:37 51°13.939 2°52.776 239.7 13.4 235 9.5
2006-01-19 07:57:42 51°13.929 2°52.752 239.4 13.3 236 9.5
2006-01-19 07:57:47 51°13.918 2°52.728 239.8 13.2 235 9.4
2006-01-19 07:57:53 51°13.906 2°52.698 239.5 13.3 237 9.5
2006-01-19 07:57:57 51°13.898 2°52.678 241 13.2 238 9.5
2006-01-19 07:58:02 51°13.889 2°52.653 241.4 13.3 239 9.5
2006-01-19 07:58:07 51°13.879 2°52.628 243 13.3 240 9.5
2006-01-19 07:58:12 51°13.87 2°52.603 243.2 13.2 239 9.5
2006-01-19 07:58:17 51°13.861 2°52.577 243.8 13.3 240 9.5
2006-01-19 07:58:22 51°13.852 2°52.551 244.4 13.3 240 9.5
2006-01-19 07:58:27 51°13.843 2°52.526 244.6 13.2 240 9.5
2006-01-19 07:58:32 51°13.833 2°52.501 244.2 13.3 240 9.6
2006-01-19 07:58:37 51°13.824 2°52.476 243.7 13.3 239 9.5
2006-01-19 07:58:42 51°13.814 2°52.451 242.7 13.3 238 9.5
2006-01-19 07:58:47 51°13.805 2°52.426 242.4 13.3 238 9.6
2006-01-19 07:58:52 51°13.795 2°52.402 241.9 13.2 237 9.6
2006-01-19 07:58:57 51°13.785 2°52.377 241.7 13.2 237 9.6
2006-01-19 07:59:02 51°13.775 2°52.352 241.4 13.3 237 9.6
2006-01-19 07:59:07 51°13.765 2°52.328 241.5 13.3 237 9.5
2006-01-19 07:59:12 51°13.755 2°52.303 241.8 13.3 238 9.6
2006-01-19 07:59:17 51°13.746 2°52.278 242.2 13.3 238 9.6
2006-01-19 07:59:22 51°13.736 2°52.253 243 13.2 239 9.6
2006-01-19 07:59:27 51°13.727 2°52.227 243.3 13.3 239 9.6
2006-01-19 07:59:32 51°13.718 2°52.202 243.7 13.4 240 9.6
2006-01-19 07:59:37 51°13.708 2°52.177 244.3 13.2 240 9.6
2006-01-19 07:59:42 51°13.699 2°52.152 243.5 13.3 239 9.6
2006-01-19 07:59:47 51°13.69 2°52.126 243.9 13.3 240 9.6
2006-01-19 07:59:52 51°13.68 2°52.101 244.2 13.3 239 9.6
2006-01-19 07:59:57 51°13.671 2°52.075 243.8 13.3 240 9.6
2006-01-19 08:00:02 51°13.661 2°52.05 243.8 13.3 238 9.6
2006-01-19 08:00:07 51°13.651 2°52.025 242.8 13.4 238 9.6
2006-01-19 08:00:13 51°13.639 2°51.996 242.7 13.3 238 9.7
2006-01-19 08:00:17 51°13.631 2°51.976 242.1 13.4 237 9.7
2006-01-19 08:00:22 51°13.621 2°51.951 241.8 13.4 237 9.7
2006-01-19 08:00:27 51°13.611 2°51.926 241.7 13.3 237 9.7
2006-01-19 08:00:33 51°13.599 2°51.896 241.2 13.5 237 9.7
2006-01-19 08:00:37 51°13.591 2°51.876 242.3 13.4 238 9.7
2006-01-19 08:00:42 51°13.58 2°51.851 242.2 13.5 237 9.6
2006-01-19 08:00:47 51°13.571 2°51.826 242.9 13.4 240 9.7
2006-01-19 08:00:52 51°13.561 2°51.801 243.2 13.4 238 9.7
2006-01-19 08:00:57 51°13.551 2°51.775 243.1 13.5 239 9.7
2006-01-19 08:01:02 51°13.541 2°51.75 243.8 13.4 239 9.7
2006-01-19 08:01:07 51°13.532 2°51.724 243.6 13.5 239 9.7
2006-01-19 08:01:12 51°13.523 2°51.698 244.5 13.5 240 9.7
2006-01-19 08:01:17 51°13.513 2°51.672 244.3 13.4 239 9.7
2006-01-19 08:01:22 51°13.504 2°51.647 243.9 13.4 239 9.8
2006-01-19 08:01:27 51°13.494 2°51.622 243.5 13.5 238 9.8
2006-01-19 08:01:32 51°13.484 2°51.596 242.9 13.5 239 9.9
2006-01-19 08:01:37 51°13.474 2°51.571 242.7 13.5 238 9.8
2006-01-19 08:01:42 51°13.464 2°51.546 242 13.5 238 9.9
2006-01-19 08:01:47 51°13.454 2°51.521 242.5 13.5 238 9.9
2006-01-19 08:01:52 51°13.444 2°51.496 242.4 13.4 238 9.9
2006-01-19 08:01:57 51°13.434 2°51.47 242.2 13.4 238 9.9
2006-01-19 08:02:02 51°13.424 2°51.445 242.4 13.5 238 9.8
2006-01-19 08:02:07 51°13.415 2°51.42 242.8 13.5 239 9.8
2006-01-19 08:02:12 51°13.405 2°51.394 243.1 13.4 238 9.9
2006-01-19 08:02:17 51°13.395 2°51.369 243.1 13.5 238 9.9
2006-01-19 08:02:22 51°13.385 2°51.344 243.1 13.5 239 9.9
2006-01-19 08:02:26 51°13.377 2°51.323 242.9 13.4 238 9.9
2006-01-19 08:02:32 51°13.366 2°51.293 242.6 13.5 239 9.8
2006-01-19 08:02:37 51°13.356 2°51.267 243 13.5 238 9.8
2006-01-19 08:02:42 51°13.346 2°51.242 242.5 13.5 238 9.9
2006-01-19 08:02:46 51°13.338 2°51.222 242.3 13.5 238 9.8
2006-01-19 08:02:52 51°13.326 2°51.192 242.3 13.5 238 9.9
2006-01-19 08:02:57 51°13.316 2°51.167 242.5 13.5 238 9.9
2006-01-19 08:03:02 51°13.306 2°51.141 242.8 13.5 238 9.9
2006-01-19 08:03:07 51°13.296 2°51.116 243 13.6 238 9.9
2006-01-19 08:03:12 51°13.286 2°51.09 243.2 13.5 239 10
2006-01-19 08:03:17 51°13.276 2°51.065 243.6 13.5 239 10
2006-01-19 08:03:22 51°13.267 2°51.039 243.4 13.6 239 9.9
2006-01-19 08:03:27 51°13.257 2°51.013 243.8 13.5 239 10
2006-01-19 08:03:32 51°13.247 2°50.988 243.8 13.5 239 10
2006-01-19 08:03:37 51°13.238 2°50.962 243.1 13.6 239 10
2006-01-19 08:03:42 51°13.228 2°50.937 243.8 13.6 239 9.9
2006-01-19 08:03:47 51°13.218 2°50.911 243.4 13.5 239 10
2006-01-19 08:03:52 51°13.208 2°50.886 242.8 13.5 238 10
2006-01-19 08:03:57 51°13.198 2°50.86 242.8 13.6 238 10
2006-01-19 08:04:02 51°13.188 2°50.835 242.9 13.5 238 10
2006-01-19 08:04:07 51°13.178 2°50.81 242.5 13.6 239 10
2006-01-19 08:04:12 51°13.168 2°50.784 242.6 13.5 238 10
2006-01-19 08:04:17 51°13.158 2°50.759 242.4 13.6 238 10
2006-01-19 08:04:22 51°13.148 2°50.733 243.1 13.6 239 10
2006-01-19 08:04:27 51°13.138 2°50.708 243.4 13.5 238 10
2006-01-19 08:04:32 51°13.129 2°50.682 243.4 13.6 240 10
2006-01-19 08:04:37 51°13.119 2°50.656 243.7 13.6 239 10.1
2006-01-19 08:04:42 51°13.11 2°50.63 244 13.6 240 10.1
2006-01-19 08:04:47 51°13.1 2°50.604 244.2 13.6 240 10.1
2006-01-19 08:04:52 51°13.091 2°50.578 244.2 13.6 240 10.1
2006-01-19 08:04:57 51°13.081 2°50.553 244.2 13.6 239 10.1
2006-01-19 08:05:02 51°13.071 2°50.527 243.8 13.6 239 10
2006-01-19 08:05:06 51°13.063 2°50.507 243.5 13.6 239 10.1
2006-01-19 08:05:12 51°13.051 2°50.476 242.9 13.6 238 10.1
2006-01-19 08:05:17 51°13.041 2°50.451 242.5 13.5 238 10.1
2006-01-19 08:05:22 51°13.031 2°50.425 242.4 13.6 238 10.1
2006-01-19 08:05:27 51°13.022 2°50.4 242.6 13.5 239 10.1
2006-01-19 08:05:32 51°13.012 2°50.374 243.2 13.6 238 10.1
2006-01-19 08:05:37 51°13.002 2°50.348 243.3 13.6 240 10.1
2006-01-19 08:05:42 51°12.993 2°50.322 244.3 13.5 239 10.1
2006-01-19 08:05:47 51°12.984 2°50.296 244.2 13.6 240 10.1
2006-01-19 08:05:52 51°12.974 2°50.271 244.7 13.6 240 10.1
2006-01-19 08:05:57 51°12.965 2°50.244 244.8 13.6 241 10.1
2006-01-19 08:06:02 51°12.955 2°50.218 244.8 13.6 240 10.2
2006-01-19 08:06:07 51°12.946 2°50.192 244.9 13.6 241 10.1
2006-01-19 08:06:12 51°12.936 2°50.166 245.2 13.6 241 10.2
2006-01-19 08:06:17 51°12.927 2°50.14 245.5 13.6 241 10.2
2006-01-19 08:06:22 51°12.918 2°50.113 246 13.6 241 10.2
2006-01-19 08:06:26 51°12.911 2°50.092 246.1 13.6 241 10.2
2006-01-19 08:06:32 51°12.9 2°50.061 246.2 13.6 241 10.2
2006-01-19 08:06:37 51°12.891 2°50.034 246 13.6 241 10.2
2006-01-19 08:06:42 51°12.882 2°50.008 245.8 13.6 241 10.2
2006-01-19 08:06:47 51°12.873 2°49.982 245.8 13.6 241 10.2
2006-01-19 08:06:52 51°12.863 2°49.956 245.1 13.6 240 10.1
2006-01-19 08:06:57 51°12.853 2°49.93 244.8 13.6 240 10.3
2006-01-19 08:07:02 51°12.844 2°49.904 244.4 13.6 240 10.3
2006-01-19 08:07:07 51°12.834 2°49.878 244.2 13.6 240 10.3
2006-01-19 08:07:13 51°12.823 2°49.847 244.5 13.6 241 10.3
2006-01-19 08:07:17 51°12.816 2°49.826 245.3 13.6 241 10.3
2006-01-19 08:07:22 51°12.807 2°49.8 245.7 13.6 241 10.3
2006-01-19 08:07:27 51°12.798 2°49.773 246 13.6 242 10.3
2006-01-19 08:07:32 51°12.789 2°49.747 246.4 13.5 241 10.3
2006-01-19 08:07:37 51°12.78 2°49.721 246.1 13.5 241 10.3
2006-01-19 08:07:43 51°12.769 2°49.689 245.5 13.6 241 10.3
2006-01-19 08:07:47 51°12.762 2°49.669 245.4 13.6 241 10.3
2006-01-19 08:07:52 51°12.752 2°49.643 245.1 13.6 240 10.3
2006-01-19 08:07:57 51°12.743 2°49.617 244.4 13.6 239 10.3
2006-01-19 08:08:02 51°12.733 2°49.591 244.4 13.6 240 10.4
2006-01-19 08:08:07 51°12.724 2°49.565 244.5 13.5 240 10.3
2006-01-19 08:08:12 51°12.715 2°49.539 244.5 13.6 240 10.4
2006-01-19 08:08:17 51°12.706 2°49.513 245.5 13.6 241 10.4
2006-01-19 08:08:22 51°12.697 2°49.487 245.4 13.6 241 10.4
2006-01-19 08:08:26 51°12.689 2°49.466 245.8 13.6 241 10.4
2006-01-19 08:08:32 51°12.679 2°49.434 246.2 13.5 242 10.5
2006-01-19 08:08:37 51°12.669 2°49.408 246.4 13.5 241 10.4
2006-01-19 08:08:42 51°12.661 2°49.381 246 13.6 242 10.4
2006-01-19 08:08:47 51°12.652 2°49.355 246 13.6 241 10.4
2006-01-19 08:08:52 51°12.643 2°49.328 246.2 13.6 242 10.5
2006-01-19 08:08:57 51°12.633 2°49.302 246 13.6 240 10.5
2006-01-19 08:09:02 51°12.624 2°49.276 245.6 13.6 241 10.5
2006-01-19 08:09:06 51°12.617 2°49.255 245.2 13.6 240 10.6
2006-01-19 08:09:12 51°12.606 2°49.224 244.9 13.6 240 10.5
2006-01-19 08:09:17 51°12.596 2°49.198 244.8 13.6 240 10.5
2006-01-19 08:09:22 51°12.587 2°49.172 244.8 13.5 240 10.5
2006-01-19 08:09:27 51°12.577 2°49.146 244.2 13.6 239 10.5
2006-01-19 08:09:32 51°12.568 2°49.12 244.7 13.5 240 10.5
2006-01-19 08:09:37 51°12.558 2°49.094 244.5 13.6 240 10.5
2006-01-19 08:09:42 51°12.549 2°49.068 244.8 13.6 241 10.5
2006-01-19 08:09:47 51°12.54 2°49.042 244.9 13.6 240 10.5
2006-01-19 08:09:52 51°12.531 2°49.016 245.1 13.6 241 10.5
2006-01-19 08:09:57 51°12.522 2°48.99 245.8 13.5 240 10.5
2006-01-19 08:10:02 51°12.513 2°48.963 245.3 13.6 241 10.5
2006-01-19 08:10:07 51°12.504 2°48.937 245.6 13.6 242 10.5
2006-01-19 08:10:12 51°12.495 2°48.911 246.2 13.5 241 10.5
2006-01-19 08:10:17 51°12.486 2°48.885 245.8 13.6 241 10.5
2006-01-19 08:10:22 51°12.477 2°48.858 245.8 13.6 241 10.5
2006-01-19 08:10:27 51°12.468 2°48.832 246 13.6 241 10.5
2006-01-19 08:10:32 51°12.459 2°48.806 245.9 13.5 242 10.5
2006-01-19 08:10:37 51°12.45 2°48.78 245.9 13.5 241 10.5
2006-01-19 08:10:42 51°12.441 2°48.753 245.8 13.6 241 10.5
2006-01-19 08:10:47 51°12.432 2°48.727 245.9 13.6 242 10.5
2006-01-19 08:10:53 51°12.421 2°48.695 246 13.6 241 10.5
2006-01-19 08:10:57 51°12.414 2°48.674 246 13.6 242 10.6
2006-01-19 08:11:02 51°12.405 2°48.648 246 13.6 240 10.6
2006-01-19 08:11:07 51°12.396 2°48.621 245.9 13.6 242 10.5
2006-01-19 08:11:12 51°12.387 2°48.595 246 13.6 241 10.6
2006-01-19 08:11:17 51°12.378 2°48.569 245.7 13.6 241 10.6
2006-01-19 08:11:22 51°12.369 2°48.543 245.8 13.6 241 10.6
2006-01-19 08:11:27 51°12.36 2°48.516 245.3 13.6 241 10.6
2006-01-19 08:11:32 51°12.35 2°48.49 245.1 13.6 241 10.6
2006-01-19 08:11:37 51°12.341 2°48.464 245.3 13.6 241 10.6
2006-01-19 08:11:42 51°12.332 2°48.438 245.1 13.6 240 10.6
2006-01-19 08:11:47 51°12.323 2°48.412 244.9 13.6 241 10.7
2006-01-19 08:11:52 51°12.314 2°48.385 245.1 13.6 241 10.6
2006-01-19 08:11:57 51°12.304 2°48.359 245.1 13.6 241 10.6
2006-01-19 08:12:02 51°12.295 2°48.333 245.3 13.6 241 10.7
2006-01-19 08:12:07 51°12.286 2°48.306 245.5 13.6 241 10.7
2006-01-19 08:12:12 51°12.277 2°48.28 245.5 13.6 241 10.6
2006-01-19 08:12:17 51°12.268 2°48.254 245.6 13.6 241 10.6
2006-01-19 08:12:22 51°12.259 2°48.227 245.3 13.7 241 10.6
2006-01-19 08:12:27 51°12.25 2°48.201 245 13.7 241 10.6
2006-01-19 08:12:32 51°12.24 2°48.175 244.5 13.6 240 10.7
2006-01-19 08:12:37 51°12.231 2°48.149 244.4 13.5 240 10.6
2006-01-19 08:12:42 51°12.222 2°48.123 244.4 13.6 241 10.6
2006-01-19 08:12:47 51°12.213 2°48.096 244.5 13.7 241 10.7
2006-01-19 08:12:52 51°12.204 2°48.07 245.7 13.6 242 10.7
2006-01-19 08:12:57 51°12.195 2°48.044 245.8 13.6 241 10.7
2006-01-19 08:13:02 51°12.186 2°48.017 246 13.6 242 10.7
2006-01-19 08:13:07 51°12.177 2°47.991 246.3 13.6 242 10.7
2006-01-19 08:13:12 51°12.168 2°47.964 246.1 13.6 242 10.7
2006-01-19 08:13:17 51°12.159 2°47.937 245.7 13.7 241 10.6
2006-01-19 08:13:22 51°12.15 2°47.911 245.7 13.6 241 10.7
2006-01-19 08:13:27 51°12.141 2°47.885 245.3 13.6 241 10.6
2006-01-19 08:13:33 51°12.13 2°47.854 244.6 13.5 240 10.6
2006-01-19 08:13:37 51°12.122 2°47.833 244.2 13.6 240 10.7
2006-01-19 08:13:42 51°12.113 2°47.807 244.1 13.6 241 10.7
2006-01-19 08:13:47 51°12.104 2°47.781 244.5 13.6 240 10.5
2006-01-19 08:13:53 51°12.093 2°47.749 244.7 13.6 241 10.6
2006-01-19 08:13:57 51°12.086 2°47.728 245.4 13.5 242 10.6
2006-01-19 08:14:02 51°12.077 2°47.702 245.4 13.5 241 10.5
2006-01-19 08:14:07 51°12.068 2°47.676 245.6 13.6 242 10.6
2006-01-19 08:14:12 51°12.059 2°47.649 245.7 13.6 241 10.5
2006-01-19 08:14:17 51°12.05 2°47.623 245.3 13.5 241 10.6
2006-01-19 08:14:22 51°12.04 2°47.597 245.1 13.6 241 10.6
2006-01-19 08:14:26 51°12.033 2°47.576 244.7 13.5 240 10.6
2006-01-19 08:14:32 51°12.022 2°47.545 244.6 13.5 241 10.6
2006-01-19 08:14:37 51°12.013 2°47.519 244.5 13.5 241 10.6
2006-01-19 08:14:42 51°12.004 2°47.493 245.1 13.5 242 10.6
2006-01-19 08:14:47 51°11.995 2°47.466 245.3 13.5 241 10.6
2006-01-19 08:14:52 51°11.986 2°47.44 245.7 13.5 242 10.5
2006-01-19 08:14:57 51°11.977 2°47.414 246.1 13.5 242 10.6
2006-01-19 08:15:02 51°11.969 2°47.387 246.2 13.5 242 10.5
2006-01-19 08:15:07 51°11.96 2°47.361 246.3 13.6 242 10.5
2006-01-19 08:15:13 51°11.949 2°47.329 246.3 13.5 243 10.6
2006-01-19 08:15:17 51°11.942 2°47.308 246.4 13.5 242 10.6
2006-01-19 08:15:22 51°11.933 2°47.282 246 13.6 242 10.6
2006-01-19 08:15:27 51°11.924 2°47.255 245.9 13.5 242 10.5
2006-01-19 08:15:32 51°11.915 2°47.229 245.3 13.5 241 10.5
2006-01-19 08:15:37 51°11.906 2°47.203 244.8 13.5 241 10.4
2006-01-19 08:15:42 51°11.897 2°47.177 244.8 13.6 241 10.5
2006-01-19 08:15:46 51°11.889 2°47.156 245 13.5 241 10.5
2006-01-19 08:15:52 51°11.878 2°47.125 244.5 13.5 241 10.5
2006-01-19 08:15:57 51°11.869 2°47.099 244.4 13.5 240 10.4
2006-01-19 08:16:02 51°11.86 2°47.073 244.4 13.6 241 10.4
2006-01-19 08:16:06 51°11.852 2°47.052 244.5 13.5 241 10.3
2006-01-19 08:16:12 51°11.842 2°47.021 244.5 13.5 241 10.4
2006-01-19 08:16:17 51°11.832 2°46.995 244.8 13.5 241 10.3
2006-01-19 08:16:22 51°11.824 2°46.968 245.5 13.6 243 10.4
2006-01-19 08:16:27 51°11.815 2°46.942 246.1 13.5 242 10.3
2006-01-19 08:16:32 51°11.806 2°46.916 246 13.5 242 10.3
2006-01-19 08:16:37 51°11.797 2°46.889 245.8 13.5 242 10.3
2006-01-19 08:16:42 51°11.789 2°46.863 246.1 13.5 243 10.4
2006-01-19 08:16:46 51°11.782 2°46.842 246.2 13.5 242 10.5
2006-01-19 08:16:51 51°11.773 2°46.815 246.2 13.5 243 10.3
2006-01-19 08:16:57 51°11.763 2°46.784 246.1 13.5 242 10.3
2006-01-19 08:17:02 51°11.754 2°46.758 245.3 13.5 241 10.3
2006-01-19 08:17:07 51°11.745 2°46.731 245.2 13.5 241 10.3
2006-01-19 08:17:12 51°11.736 2°46.705 244.8 13.5 241 10.3
2006-01-19 08:17:17 51°11.727 2°46.679 244.5 13.5 241 10.3
2006-01-19 08:17:22 51°11.718 2°46.653 244.5 13.5 241 10.3
2006-01-19 08:17:26 51°11.71 2°46.632 244.5 13.5 241 10.3
2006-01-19 08:17:32 51°11.7 2°46.601 244.5 13.5 241 10.3
2006-01-19 08:17:37 51°11.691 2°46.575 244.9 13.5 241 10.3
2006-01-19 08:17:42 51°11.682 2°46.548 245.2 13.5 242 10.3
2006-01-19 08:17:47 51°11.673 2°46.522 245.3 13.5 242 10.3
2006-01-19 08:17:53 51°11.663 2°46.49 245.9 13.4 243 10.3
2006-01-19 08:17:57 51°11.656 2°46.47 245.9 13.5 242 10.3
2006-01-19 08:18:02 51°11.647 2°46.443 246.1 13.5 243 10.3
2006-01-19 08:18:07 51°11.639 2°46.416 246.2 13.5 242 10.3
2006-01-19 08:18:13 51°11.628 2°46.385 246.1 13.5 242 10.3
2006-01-19 08:18:17 51°11.621 2°46.364 245.9 13.5 242 10.3
2006-01-19 08:18:22 51°11.612 2°46.338 245.7 13.5 242 10.3
2006-01-19 08:18:27 51°11.604 2°46.311 245.6 13.5 242 10.3
2006-01-19 08:18:32 51°11.595 2°46.285 245.1 13.5 241 10.3
2006-01-19 08:18:37 51°11.586 2°46.259 244.5 13.5 241 10.2
2006-01-19 08:18:42 51°11.577 2°46.233 244.1 13.5 240 10.2
2006-01-19 08:18:46 51°11.569 2°46.212 243.9 13.5 240 10.2
2006-01-19 08:18:52 51°11.558 2°46.182 243.9 13.5 240 10.2
2006-01-19 08:18:57 51°11.549 2°46.156 243.9 13.5 241 10.1
2006-01-19 08:19:02 51°11.54 2°46.13 244.5 13.5 242 10.1
2006-01-19 08:19:06 51°11.533 2°46.108 245.3 13.5 242 10.1
2006-01-19 08:19:12 51°11.523 2°46.077 246 13.5 243 10
2006-01-19 08:19:17 51°11.515 2°46.05 247.6 13.5 245 10
2006-01-19 08:19:22 51°11.507 2°46.023 248.9 13.5 245 10
2006-01-19 08:19:26 51°11.501 2°46.001 250.3 13.5 247 10
2006-01-19 08:19:32 51°11.492 2°45.968 251 13.4 247 10
2006-01-19 08:19:37 51°11.485 2°45.941 251 13.5 247 10
2006-01-19 08:19:42 51°11.478 2°45.913 251.6 13.5 248 9.9
2006-01-19 08:19:47 51°11.471 2°45.885 251.9 13.5 248 10
2006-01-19 08:19:52 51°11.464 2°45.858 251.9 13.5 247 10
2006-01-19 08:19:57 51°11.457 2°45.83 251.6 13.5 248 9.9
2006-01-19 08:20:02 51°11.449 2°45.803 251 13.6 246 9.9
2006-01-19 08:20:07 51°11.442 2°45.776 250.4 13.5 246 10
2006-01-19 08:20:12 51°11.434 2°45.749 249.6 13.5 245 10
2006-01-19 08:20:17 51°11.426 2°45.721 249.3 13.6 246 10
2006-01-19 08:20:22 51°11.418 2°45.694 249.4 13.5 245 10
2006-01-19 08:20:27 51°11.41 2°45.667 249.3 13.5 246 10
2006-01-19 08:20:32 51°11.403 2°45.639 249.3 13.5 245 10
2006-01-19 08:20:37 51°11.395 2°45.612 249.4 13.6 246 10
2006-01-19 08:20:42 51°11.388 2°45.585 249.6 13.6 246 10
2006-01-19 08:20:47 51°11.38 2°45.557 250.4 13.6 247 9.9
2006-01-19 08:20:52 51°11.373 2°45.529 250.7 13.5 248 9.9
2006-01-19 08:20:57 51°11.366 2°45.501 251.7 13.5 248 9.9
2006-01-19 08:21:02 51°11.359 2°45.473 252.7 13.6 249 9.9
2006-01-19 08:21:07 51°11.353 2°45.445 253.3 13.6 249 10
2006-01-19 08:21:12 51°11.347 2°45.417 253.9 13.5 250 9.9
2006-01-19 08:21:17 51°11.34 2°45.389 253.6 13.6 250 9.9
2006-01-19 08:21:22 51°11.334 2°45.361 253.9 13.6 250 9.9
2006-01-19 08:21:27 51°11.328 2°45.333 254 13.6 250 9.9
2006-01-19 08:21:32 51°11.321 2°45.305 254 13.5 250 9.9
2006-01-19 08:21:37 51°11.314 2°45.276 253.4 13.6 249 9.9
2006-01-19 08:21:42 51°11.307 2°45.248 253.4 13.6 249 9.9
2006-01-19 08:21:47 51°11.301 2°45.221 252.5 13.5 248 9.9
2006-01-19 08:21:52 51°11.293 2°45.193 251.5 13.5 247 9.9
2006-01-19 08:21:57 51°11.286 2°45.166 250.7 13.5 247 9.9
2006-01-19 08:22:02 51°11.278 2°45.138 250 13.6 246 9.9
2006-01-19 08:22:06 51°11.272 2°45.116 249.5 13.6 246 9.9
2006-01-19 08:22:12 51°11.262 2°45.084 249.4 13.5 246 9.9
2006-01-19 08:22:17 51°11.255 2°45.057 249.3 13.5 246 9.9
2006-01-19 08:22:22 51°11.247 2°45.03 249 13.6 245 9.8
2006-01-19 08:22:27 51°11.24 2°45.002 249.7 13.6 247 9.8
2006-01-19 08:22:33 51°11.231 2°44.969 250.4 13.6 247 9.9
2006-01-19 08:22:37 51°11.225 2°44.946 250.9 13.6 248 9.8
2006-01-19 08:22:42 51°11.218 2°44.919 251.4 13.6 248 9.8
2006-01-19 08:22:47 51°11.211 2°44.891 251.7 13.6 248 9.8
2006-01-19 08:22:52 51°11.204 2°44.863 251.8 13.5 248 9.8
2006-01-19 08:22:57 51°11.197 2°44.835 251.8 13.5 248 9.8
2006-01-19 08:23:02 51°11.19 2°44.808 251.7 13.6 248 9.8
2006-01-19 08:23:07 51°11.183 2°44.78 251.5 13.6 248 9.8
2006-01-19 08:23:12 51°11.175 2°44.752 251.1 13.6 248 9.8
2006-01-19 08:23:17 51°11.168 2°44.725 250.4 13.6 246 9.8
2006-01-19 08:23:22 51°11.16 2°44.697 249.8 13.6 247 9.7
2006-01-19 08:23:27 51°11.153 2°44.67 249.6 13.6 246 9.7
2006-01-19 08:23:32 51°11.145 2°44.643 249.6 13.5 246 9.7
2006-01-19 08:23:37 51°11.137 2°44.615 249.6 13.5 246 9.7
2006-01-19 08:23:42 51°11.13 2°44.588 250.1 13.6 247 9.7
2006-01-19 08:23:47 51°11.123 2°44.56 250.5 13.6 247 9.7
2006-01-19 08:23:52 51°11.115 2°44.533 250.8 13.5 247 9.7
2006-01-19 08:23:57 51°11.109 2°44.505 250.9 13.5 248 9.6
2006-01-19 08:24:02 51°11.102 2°44.477 251.1 13.6 248 9.7
2006-01-19 08:24:07 51°11.095 2°44.449 251.8 13.6 249 9.7
2006-01-19 08:24:13 51°11.087 2°44.415 252.5 13.6 250 9.7
2006-01-19 08:24:17 51°11.082 2°44.393 253.3 13.6 250 9.7
2006-01-19 08:24:22 51°11.076 2°44.364 254.2 13.5 251 9.7
2006-01-19 08:24:27 51°11.07 2°44.336 254.5 13.5 250 9.6
2006-01-19 08:24:32 51°11.064 2°44.308 254.1 13.6 251 9.7
2006-01-19 08:24:37 51°11.057 2°44.279 254.3 13.6 251 9.6
2006-01-19 08:24:42 51°11.051 2°44.251 254.6 13.6 251 9.7
2006-01-19 08:24:46 51°11.046 2°44.228 254.6 13.6 251 9.6
2006-01-19 08:24:52 51°11.039 2°44.194 254.2 13.6 251 9.6
2006-01-19 08:24:57 51°11.033 2°44.166 254.2 13.6 251 9.6
2006-01-19 08:25:02 51°11.026 2°44.138 254.1 13.6 250 9.7
2006-01-19 08:25:06 51°11.021 2°44.115 253.5 13.6 250 9.7
2006-01-19 08:25:12 51°11.013 2°44.082 253.3 13.6 250 9.6
2006-01-19 08:25:17 51°11.007 2°44.054 253.1 13.6 250 9.7
2006-01-19 08:25:22 51°11 2°44.026 252.4 13.6 249 9.7
2006-01-19 08:25:26 51°10.995 2°44.003 252.2 13.6 250 9.7
2006-01-19 08:25:32 51°10.987 2°43.97 252.5 13.6 249 9.7
2006-01-19 08:25:37 51°10.98 2°43.941 252.4 13.6 249 9.7
2006-01-19 08:25:42 51°10.974 2°43.913 252.7 13.6 250 9.7
2006-01-19 08:25:47 51°10.967 2°43.885 252.8 13.6 250 9.7
2006-01-19 08:25:52 51°10.961 2°43.857 253.3 13.6 250 9.7
2006-01-19 08:25:57 51°10.954 2°43.828 253.3 13.6 250 9.7
2006-01-19 08:26:02 51°10.948 2°43.8 253.6 13.6 251 9.7
2006-01-19 08:26:07 51°10.942 2°43.772 253.8 13.6 250 9.7
2006-01-19 08:26:12 51°10.935 2°43.743 253.8 13.6 251 9.7
2006-01-19 08:26:17 51°10.929 2°43.715 253.9 13.6 251 9.6
2006-01-19 08:26:22 51°10.923 2°43.687 254.1 13.6 251 9.7
2006-01-19 08:26:27 51°10.916 2°43.658 254 13.6 251 9.7
2006-01-19 08:26:32 51°10.91 2°43.63 253.7 13.6 251 9.7
2006-01-19 08:26:37 51°10.904 2°43.602 253.4 13.6 249 9.6
2006-01-19 08:26:42 51°10.897 2°43.573 253.2 13.7 250 9.6
2006-01-19 08:26:47 51°10.89 2°43.545 253.2 13.6 250 9.6
2006-01-19 08:26:52 51°10.884 2°43.517 252.8 13.6 250 9.6
2006-01-19 08:26:57 51°10.877 2°43.489 252.7 13.6 249 9.6
2006-01-19 08:27:02 51°10.871 2°43.461 252.5 13.6 250 9.6
2006-01-19 08:27:07 51°10.864 2°43.433 252.5 13.6 249 9.6
2006-01-19 08:27:12 51°10.857 2°43.405 252.4 13.6 250 9.6
2006-01-19 08:27:17 51°10.85 2°43.377 252.2 13.6 248 9.6
2006-01-19 08:27:22 51°10.844 2°43.348 252.5 13.6 251 9.6
2006-01-19 08:27:26 51°10.839 2°43.326 253 13.6 250 9.6
2006-01-19 08:27:33 51°10.83 2°43.286 253.6 13.6 251 9.6
2006-01-19 08:27:37 51°10.826 2°43.263 254 13.6 251 9.6
2006-01-19 08:27:42 51°10.819 2°43.235 254.2 13.6 251 9.6
2006-01-19 08:27:47 51°10.814 2°43.206 254.2 13.6 251 9.6
2006-01-19 08:27:52 51°10.807 2°43.178 254.5 13.6 251 9.6
2006-01-19 08:27:57 51°10.801 2°43.149 254.3 13.6 251 9.6
2006-01-19 08:28:02 51°10.795 2°43.121 254.3 13.6 250 9.6
2006-01-19 08:28:07 51°10.789 2°43.093 253.5 13.6 250 9.6
2006-01-19 08:28:12 51°10.782 2°43.065 253.1 13.6 250 9.6
2006-01-19 08:28:18 51°10.774 2°43.031 252.1 13.6 249 9.6
2006-01-19 08:28:22 51°10.769 2°43.009 251.8 13.6 250 9.6
2006-01-19 08:28:27 51°10.762 2°42.981 252.3 13.6 250 9.6
2006-01-19 08:28:32 51°10.756 2°42.952 252.5 13.6 250 9.6
2006-01-19 08:28:37 51°10.749 2°42.924 252.6 13.6 250 9.6
2006-01-19 08:28:42 51°10.743 2°42.896 253.1 13.6 251 9.6
2006-01-19 08:28:47 51°10.737 2°42.867 253.9 13.6 251 9.6
2006-01-19 08:28:52 51°10.731 2°42.839 254.5 13.6 251 9.6
2006-01-19 08:28:57 51°10.725 2°42.81 254.6 13.6 252 9.6
2006-01-19 08:29:02 51°10.719 2°42.782 254.7 13.6 251 9.6
2006-01-19 08:29:07 51°10.713 2°42.753 254.1 13.6 251 9.6
2006-01-19 08:29:12 51°10.707 2°42.725 253.8 13.6 251 9.7
2006-01-19 08:29:17 51°10.7 2°42.697 253.3 13.6 250 9.6
2006-01-19 08:29:22 51°10.694 2°42.669 252.9 13.6 250 9.7
2006-01-19 08:29:27 51°10.687 2°42.641 252.5 13.5 249 9.6
2006-01-19 08:29:32 51°10.681 2°42.613 251.8 13.6 250 9.6
2006-01-19 08:29:37 51°10.674 2°42.585 252 13.7 249 9.6
2006-01-19 08:29:42 51°10.667 2°42.557 252.3 13.6 250 9.6
2006-01-19 08:29:47 51°10.661 2°42.528 252.8 13.6 251 9.6
2006-01-19 08:29:52 51°10.655 2°42.5 253.4 13.6 251 9.6
2006-01-19 08:29:57 51°10.649 2°42.471 253.8 13.7 251 9.6
2006-01-19 08:30:02 51°10.643 2°42.443 254.5 13.6 252 9.6
2006-01-19 08:30:07 51°10.637 2°42.414 254.7 13.6 252 9.6
2006-01-19 08:30:12 51°10.631 2°42.386 254.6 13.6 252 9.7
2006-01-19 08:30:17 51°10.625 2°42.357 254.7 13.6 252 9.6
2006-01-19 08:30:22 51°10.619 2°42.329 254.2 13.7 251 9.6
2006-01-19 08:30:27 51°10.613 2°42.3 253.8 13.7 251 9.6
2006-01-19 08:30:32 51°10.606 2°42.273 253.4 13.6 249 9.6
2006-01-19 08:30:37 51°10.6 2°42.244 252.1 13.6 250 9.6
2006-01-19 08:30:42 51°10.593 2°42.216 252 13.7 249 9.6
2006-01-19 08:30:47 51°10.586 2°42.188 251.4 13.6 249 9.6
2006-01-19 08:30:52 51°10.579 2°42.161 251.1 13.6 249 9.7
2006-01-19 08:30:57 51°10.572 2°42.132 251.1 13.6 248 9.6
2006-01-19 08:31:02 51°10.565 2°42.105 251 13.6 249 9.6
2006-01-19 08:31:07 51°10.559 2°42.076 251.6 13.6 250 9.7
2006-01-19 08:31:12 51°10.553 2°42.048 252.7 13.6 251 9.6
2006-01-19 08:31:17 51°10.547 2°42.019 253.5 13.6 251 9.7
2006-01-19 08:31:22 51°10.541 2°41.991 254.3 13.6 252 9.7
2006-01-19 08:31:27 51°10.535 2°41.962 254.6 13.6 252 9.7
2006-01-19 08:31:32 51°10.529 2°41.934 254.8 13.7 252 9.7
2006-01-19 08:31:36 51°10.524 2°41.911 254.8 13.7 252 9.7
2006-01-19 08:31:42 51°10.517 2°41.877 254.7 13.6 251 9.7
2006-01-19 08:31:47 51°10.511 2°41.848 254 13.6 251 9.7
2006-01-19 08:31:52 51°10.505 2°41.82 253.5 13.6 250 9.8
2006-01-19 08:31:57 51°10.498 2°41.791 252.6 13.6 249 9.7
2006-01-19 08:32:02 51°10.492 2°41.763 252.2 13.7 249 9.6
2006-01-19 08:32:07 51°10.485 2°41.735 252 13.6 249 9.8
2006-01-19 08:32:12 51°10.479 2°41.707 251.9 13.6 249 9.7
2006-01-19 08:32:17 51°10.472 2°41.678 251.8 13.6 250 9.8
2006-01-19 08:32:22 51°10.466 2°41.65 252 13.7 250 9.7
2006-01-19 08:32:27 51°10.46 2°41.621 253.1 13.7 251 9.8
2006-01-19 08:32:33 51°10.453 2°41.587 253.9 13.6 252 9.8
2006-01-19 08:32:37 51°10.448 2°41.564 254.2 13.6 252 9.8
2006-01-19 08:32:42 51°10.442 2°41.535 254.8 13.6 252 9.8
2006-01-19 08:32:47 51°10.437 2°41.507 254.9 13.6 252 9.8
2006-01-19 08:32:52 51°10.431 2°41.478 254.7 13.7 252 9.8
2006-01-19 08:32:57 51°10.425 2°41.45 254.5 13.6 252 9.8
2006-01-19 08:33:02 51°10.419 2°41.421 254 13.6 251 9.8
2006-01-19 08:33:06 51°10.414 2°41.399 253.5 13.6 251 9.8
2006-01-19 08:33:12 51°10.406 2°41.365 253.4 13.6 251 9.8
2006-01-19 08:33:17 51°10.4 2°41.336 252.7 13.6 250 9.8
2006-01-19 08:33:22 51°10.393 2°41.308 252.5 13.6 250 9.8
2006-01-19 08:33:26 51°10.388 2°41.285 252.4 13.6 251 9.8
2006-01-19 08:33:32 51°10.381 2°41.251 252.7 13.6 251 9.8
2006-01-19 08:33:37 51°10.375 2°41.223 252.9 13.6 251 9.8
2006-01-19 08:33:42 51°10.369 2°41.194 253.5 13.6 252 9.8
2006-01-19 08:33:47 51°10.363 2°41.166 254.2 13.6 252 9.8
2006-01-19 08:33:53 51°10.357 2°41.131 254.7 13.6 253 9.8
2006-01-19 08:33:57 51°10.352 2°41.108 254.7 13.6 253 9.8
2006-01-19 08:34:02 51°10.347 2°41.079 254.6 13.7 253 9.8
2006-01-19 08:34:07 51°10.341 2°41.05 254.9 13.6 253 9.9
2006-01-19 08:34:13 51°10.335 2°41.016 254.9 13.7 253 9.9
2006-01-19 08:34:17 51°10.33 2°40.993 255 13.6 253 9.9
2006-01-19 08:34:22 51°10.324 2°40.964 254.8 13.6 252 9.9
2006-01-19 08:34:27 51°10.319 2°40.936 254.3 13.7 252 9.9
2006-01-19 08:34:33 51°10.311 2°40.902 253.7 13.6 251 9.9
2006-01-19 08:34:37 51°10.306 2°40.879 253.3 13.6 251 9.9
2006-01-19 08:34:42 51°10.3 2°40.85 252.8 13.6 251 9.9
2006-01-19 08:34:47 51°10.294 2°40.822 252.7 13.6 251 9.9
2006-01-19 08:34:53 51°10.287 2°40.787 252.4 13.7 251 9.9
2006-01-19 08:34:57 51°10.282 2°40.765 252.7 13.6 251 9.9
2006-01-19 08:35:02 51°10.276 2°40.736 253.3 13.7 252 9.9
2006-01-19 08:35:07 51°10.27 2°40.707 253.9 13.7 252 10
2006-01-19 08:35:12 51°10.265 2°40.678 254.2 13.7 252 10
2006-01-19 08:35:17 51°10.259 2°40.649 254.2 13.7 252 10
2006-01-19 08:35:22 51°10.253 2°40.62 254.4 13.6 253 10
2006-01-19 08:35:27 51°10.247 2°40.592 254.4 13.6 252 10
2006-01-19 08:35:32 51°10.242 2°40.563 254.2 13.7 252 10
2006-01-19 08:35:37 51°10.236 2°40.534 253.9 13.7 252 10
2006-01-19 08:35:42 51°10.23 2°40.505 253.8 13.7 252 10
2006-01-19 08:35:46 51°10.225 2°40.482 253.3 13.7 252 10
2006-01-19 08:35:52 51°10.218 2°40.448 253.2 13.7 251 10.1
2006-01-19 08:35:57 51°10.211 2°40.42 253 13.6 251 10.1
2006-01-19 08:36:02 51°10.205 2°40.392 252.5 13.7 250 10
2006-01-19 08:36:07 51°10.198 2°40.364 252.1 13.7 250 10.1
2006-01-19 08:36:13 51°10.19 2°40.33 251.9 13.7 250 10.1
2006-01-19 08:36:17 51°10.185 2°40.307 251.9 13.7 251 10.1
2006-01-19 08:36:22 51°10.179 2°40.279 252.2 13.7 250 10.1
2006-01-19 08:36:27 51°10.173 2°40.25 252.3 13.7 251 10.1
2006-01-19 08:36:33 51°10.165 2°40.216 252.6 13.7 251 10.1
2006-01-19 08:36:37 51°10.161 2°40.193 253.3 13.7 252 10.1
2006-01-19 08:36:42 51°10.155 2°40.164 253.9 13.7 252 10.1
2006-01-19 08:36:47 51°10.149 2°40.135 254.3 13.7 253 10.1
2006-01-19 08:36:53 51°10.143 2°40.101 254.5 13.7 252 10.2
2006-01-19 08:36:57 51°10.138 2°40.078 254.5 13.7 252 10.2
2006-01-19 08:37:02 51°10.132 2°40.049 254.2 13.7 252 10.1
2006-01-19 08:37:07 51°10.126 2°40.02 253.8 13.7 251 10.2
2006-01-19 08:37:12 51°10.12 2°39.992 253.3 13.7 252 10.1
2006-01-19 08:37:17 51°10.113 2°39.963 252.7 13.7 251 10.1
2006-01-19 08:37:22 51°10.107 2°39.935 252.5 13.7 251 10.2
2006-01-19 08:37:27 51°10.101 2°39.906 252.5 13.7 251 10.2
2006-01-19 08:37:32 51°10.095 2°39.878 252.5 13.7 251 10.2
2006-01-19 08:37:37 51°10.088 2°39.849 252.5 13.7 251 10.2
2006-01-19 08:37:42 51°10.082 2°39.821 252.5 13.7 251 10.2
2006-01-19 08:37:47 51°10.076 2°39.792 252.5 13.7 251 10.2
2006-01-19 08:37:52 51°10.07 2°39.763 252.9 13.7 251 10.2
2006-01-19 08:37:57 51°10.064 2°39.734 253.1 13.7 252 10.2
2006-01-19 08:38:02 51°10.058 2°39.705 253.3 13.8 251 10.2
2006-01-19 08:38:06 51°10.054 2°39.682 253.5 13.8 252 10.2
2006-01-19 08:38:12 51°10.047 2°39.648 253.6 13.7 252 10.3
2006-01-19 08:38:17 51°10.041 2°39.619 253.7 13.7 252 10.3
2006-01-19 08:38:22 51°10.035 2°39.59 253.4 13.8 251 10.3
2006-01-19 08:38:27 51°10.029 2°39.561 253.1 13.8 251 10.3
2006-01-19 08:38:33 51°10.021 2°39.527 252.9 13.8 251 10.4
2006-01-19 08:38:37 51°10.016 2°39.504 252.5 13.8 251 10.4
2006-01-19 08:38:42 51°10.01 2°39.475 252.5 13.7 251 10.4
2006-01-19 08:38:47 51°10.004 2°39.446 252.1 13.7 250 10.4
2006-01-19 08:38:53 51°9.996 2°39.411 252.1 13.8 252 10.4
2006-01-19 08:38:57 51°9.992 2°39.388 252.5 13.8 251 10.5
2006-01-19 08:39:02 51°9.986 2°39.359 253.1 13.8 252 10.5
2006-01-19 08:39:07 51°9.98 2°39.33 253.5 13.8 252 10.5
2006-01-19 08:39:12 51°9.974 2°39.302 254 13.8 253 10.6
2006-01-19 08:39:17 51°9.969 2°39.273 254.2 13.8 253 10.6
2006-01-19 08:39:22 51°9.963 2°39.243 254.2 13.8 253 10.7
2006-01-19 08:39:26 51°9.959 2°39.22 254.4 13.8 253 10.7
2006-01-19 08:39:32 51°9.952 2°39.186 254.4 13.8 252 10.7
2006-01-19 08:39:37 51°9.946 2°39.156 254 13.8 253 10.7
2006-01-19 08:39:42 51°9.94 2°39.128 253.4 13.8 252 10.8
2006-01-19 08:39:46 51°9.935 2°39.104 253.3 13.8 252 10.9
2006-01-19 08:39:52 51°9.928 2°39.069 252.9 13.8 251 10.9
2006-01-19 08:39:57 51°9.922 2°39.041 252.7 13.8 252 10.9
2006-01-19 08:40:02 51°9.916 2°39.012 252.4 13.8 251 11
2006-01-19 08:40:06 51°9.911 2°38.989 252.3 13.9 252 11
2006-01-19 08:40:12 51°9.904 2°38.954 252.5 13.9 252 11
2006-01-19 08:40:17 51°9.898 2°38.925 252.9 13.8 252 11.1
2006-01-19 08:40:22 51°9.892 2°38.896 253.4 13.8 253 11.1
2006-01-19 08:40:27 51°9.886 2°38.867 253.9 13.8 253 11.1
2006-01-19 08:40:32 51°9.881 2°38.838 254.2 13.8 253 11.2
2006-01-19 08:40:37 51°9.876 2°38.808 254.5 13.8 253 11.2
2006-01-19 08:40:42 51°9.87 2°38.779 254.6 13.8 253 11.2
2006-01-19 08:40:46 51°9.866 2°38.756 254.5 13.8 253 11.3
2006-01-19 08:40:51 51°9.86 2°38.726 254.1 13.8 253 11.4
2006-01-19 08:40:57 51°9.853 2°38.691 253.6 13.8 252 11.4
2006-01-19 08:41:02 51°9.847 2°38.663 253.3 13.8 252 11.4
2006-01-19 08:41:07 51°9.841 2°38.634 252.6 13.8 251 11.5
2006-01-19 08:41:12 51°9.834 2°38.605 252.2 13.8 251 11.5
2006-01-19 08:41:17 51°9.828 2°38.576 252 13.8 251 11.5
2006-01-19 08:41:22 51°9.822 2°38.547 251.8 13.8 251 11.6
2006-01-19 08:41:27 51°9.816 2°38.518 252.1 13.9 251 11.6
2006-01-19 08:41:33 51°9.809 2°38.483 253.1 13.8 252 11.7
2006-01-19 08:41:37 51°9.804 2°38.46 253 13.9 252 11.7
2006-01-19 08:41:42 51°9.799 2°38.43 253.6 13.9 253 11.8
2006-01-19 08:41:47 51°9.793 2°38.401 254 13.9 252 11.9
2006-01-19 08:41:52 51°9.787 2°38.371 253.7 13.9 253 11.9
2006-01-19 08:41:57 51°9.782 2°38.342 253.9 13.9 253 11.9
2006-01-19 08:42:02 51°9.776 2°38.312 253.9 13.9 254 12
2006-01-19 08:42:06 51°9.772 2°38.289 253.9 13.9 252 12
2006-01-19 08:42:13 51°9.764 2°38.247 253.6 13.9 252 12.1
2006-01-19 08:42:17 51°9.759 2°38.224 253.3 13.9 252 12.1
2006-01-19 08:42:22 51°9.753 2°38.196 252.8 13.9 251 12.2
2006-01-19 08:42:27 51°9.746 2°38.167 252 13.9 251 12.2
2006-01-19 08:42:32 51°9.74 2°38.138 251.8 13.9 252 12.2
2006-01-19 08:42:37 51°9.734 2°38.109 252.3 13.9 251 12.3
2006-01-19 08:42:42 51°9.728 2°38.08 252.3 13.9 252 12.3
2006-01-19 08:42:48 51°9.721 2°38.045 252.6 13.9 252 12.4
2006-01-19 08:42:52 51°9.716 2°38.022 253.3 13.9 253 12.4
2006-01-19 08:42:57 51°9.71 2°37.993 253.5 13.9 253 12.5
2006-01-19 08:43:02 51°9.705 2°37.964 253.8 13.9 253 12.6
2006-01-19 08:43:07 51°9.699 2°37.935 253.8 13.9 252 12.6
2006-01-19 08:43:12 51°9.693 2°37.905 253.6 13.9 252 12.6
2006-01-19 08:43:17 51°9.687 2°37.876 253.2 13.9 252 12.7
2006-01-19 08:43:22 51°9.681 2°37.847 252.9 13.9 252 12.7
2006-01-19 08:43:26 51°9.676 2°37.823 252.8 13.9 252 12.8
2006-01-19 08:43:33 51°9.667 2°37.783 252.5 13.9 251 12.8
2006-01-19 08:43:37 51°9.663 2°37.759 252.3 13.9 251 12.8
2006-01-19 08:43:42 51°9.656 2°37.731 252.2 13.9 251 12.9
2006-01-19 08:43:47 51°9.65 2°37.702 251.8 13.9 251 12.9
2006-01-19 08:43:53 51°9.643 2°37.666 252 13.9 252 12.9
2006-01-19 08:43:57 51°9.638 2°37.643 252.5 13.9 252 13
2006-01-19 08:44:02 51°9.632 2°37.613 253.2 13.9 252 13.2
2006-01-19 08:44:07 51°9.626 2°37.584 253.5 14 253 13.2
2006-01-19 08:44:12 51°9.621 2°37.555 253.8 13.9 253 13.3
2006-01-19 08:44:17 51°9.615 2°37.526 254 13.9 252 13.3
2006-01-19 08:44:22 51°9.609 2°37.497 253.7 13.9 253 13.3
2006-01-19 08:44:27 51°9.603 2°37.468 253.6 13.9 252 13.5
2006-01-19 08:44:32 51°9.597 2°37.439 253 13.9 251 13.5
2006-01-19 08:44:37 51°9.591 2°37.409 252.5 14 251 13.5
2006-01-19 08:44:42 51°9.584 2°37.38 252.4 13.9 251 13.7
2006-01-19 08:44:47 51°9.578 2°37.351 252 13.9 251 13.8
2006-01-19 08:44:52 51°9.572 2°37.321 252.4 14 252 13.8
2006-01-19 08:44:57 51°9.566 2°37.292 252.9 13.9 252 13.9
2006-01-19 08:45:02 51°9.56 2°37.263 253 14 251 13.9
2006-01-19 08:45:07 51°9.554 2°37.234 252.9 14 252 13.9
2006-01-19 08:45:12 51°9.547 2°37.206 252.7 13.9 251 13.9
2006-01-19 08:45:17 51°9.541 2°37.176 252.5 13.9 251 13.9
2006-01-19 08:45:22 51°9.534 2°37.147 252.5 14 251 13.8
2006-01-19 08:45:27 51°9.528 2°37.119 252.8 13.9 251 14.1
2006-01-19 08:45:33 51°9.521 2°37.083 252.8 14 251 14.2
2006-01-19 08:45:37 51°9.516 2°37.06 253.2 14 252 14.3
2006-01-19 08:45:42 51°9.51 2°37.031 253.4 14 252 14.3
2006-01-19 08:45:47 51°9.504 2°37.001 253.5 14 252 14.3
2006-01-19 08:45:52 51°9.498 2°36.972 253.5 14 252 14.3
2006-01-19 08:45:57 51°9.492 2°36.943 253.3 14 252 14.4
2006-01-19 08:46:02 51°9.486 2°36.913 253.4 14 252 14.4
2006-01-19 08:46:07 51°9.48 2°36.884 253.3 14 252 14.4
2006-01-19 08:46:13 51°9.473 2°36.849 253.3 14 252 14.3
2006-01-19 08:46:17 51°9.468 2°36.825 253.1 14 252 14.4
2006-01-19 08:46:22 51°9.462 2°36.796 252.9 14 251 14.4
2006-01-19 08:46:27 51°9.456 2°36.767 253.1 14 252 14.4
2006-01-19 08:46:32 51°9.449 2°36.738 252.8 14 251 14.3
2006-01-19 08:46:37 51°9.443 2°36.708 252.8 14 252 14.3
2006-01-19 08:46:42 51°9.437 2°36.679 252.9 13.9 251 14.3
2006-01-19 08:46:47 51°9.431 2°36.65 252.5 14 251 14.3
2006-01-19 08:46:52 51°9.424 2°36.621 252.5 14 251 14.3
2006-01-19 08:46:57 51°9.418 2°36.592 252.2 14 251 14.3
2006-01-19 08:47:02 51°9.411 2°36.563 252.6 14 251 14.3
2006-01-19 08:47:08 51°9.404 2°36.528 252.3 14 251 14.2
2006-01-19 08:47:12 51°9.399 2°36.504 252.4 14 251 14.2
2006-01-19 08:47:17 51°9.393 2°36.475 252.8 14 251 14.2
2006-01-19 08:47:22 51°9.386 2°36.446 252.8 14 251 14.2
2006-01-19 08:47:27 51°9.38 2°36.416 252.8 14 251 14.1
2006-01-19 08:47:33 51°9.372 2°36.381 252.5 14.1 251 14.1
2006-01-19 08:47:37 51°9.367 2°36.358 252.5 14 251 14.1
2006-01-19 08:47:42 51°9.361 2°36.328 252.5 14 251 14
2006-01-19 08:47:47 51°9.355 2°36.299 252.5 14 251 14.1
2006-01-19 08:47:53 51°9.347 2°36.264 252.6 14 251 14.2
2006-01-19 08:47:57 51°9.342 2°36.24 252.6 14.1 251 14.1
2006-01-19 08:48:02 51°9.336 2°36.211 252.8 14.1 251 14.2
2006-01-19 08:48:07 51°9.33 2°36.181 253.2 14 252 14.2
2006-01-19 08:48:12 51°9.324 2°36.152 253 14.1 251 14.4
2006-01-19 08:48:17 51°9.317 2°36.123 253 14.1 252 14.5
2006-01-19 08:48:22 51°9.311 2°36.093 253.1 14.1 252 14.2
2006-01-19 08:48:26 51°9.306 2°36.069 253.3 14.1 252 14.2
2006-01-19 08:48:32 51°9.299 2°36.034 253.5 14.1 252 14.1
2006-01-19 08:48:37 51°9.293 2°36.004 253.5 14.1 252 14.4
2006-01-19 08:48:42 51°9.287 2°35.975 253.8 14.1 252 14.7
2006-01-19 08:48:46 51°9.282 2°35.951 254.4 14.1 253 14.4
2006-01-19 08:48:52 51°9.276 2°35.915 254.9 14.1 253 14.4
2006-01-19 08:48:57 51°9.27 2°35.885 255 14.1 254 14.7
2006-01-19 08:49:02 51°9.264 2°35.856 255.4 14.1 253 14.3
2006-01-19 08:49:06 51°9.26 2°35.832 255.4 14.1 254 14.8
2006-01-19 08:49:12 51°9.253 2°35.796 255.2 14.1 253 14.6
2006-01-19 08:49:17 51°9.247 2°35.766 254.6 14.1 253 14.6
2006-01-19 08:49:22 51°9.241 2°35.737 254.2 14.1 252 14.4
2006-01-19 08:49:27 51°9.235 2°35.707 254.1 14.1 252 14.5
2006-01-19 08:49:32 51°9.229 2°35.678 253.8 14.1 252 15
2006-01-19 08:49:37 51°9.223 2°35.648 253.8 14.1 252 14.6
2006-01-19 08:49:42 51°9.217 2°35.618 254 14.1 253 15
2006-01-19 08:49:46 51°9.213 2°35.595 254.3 14 253 15
2006-01-19 08:49:51 51°9.207 2°35.565 254.6 14 253 15
2006-01-19 08:49:57 51°9.2 2°35.53 254.7 14 253 14.9
2006-01-19 08:50:02 51°9.194 2°35.5 254.7 14 253 15.1
2006-01-19 08:50:07 51°9.189 2°35.471 254.6 14 253 14.9
2006-01-19 08:50:12 51°9.183 2°35.442 254.4 14 252 15.1
2006-01-19 08:50:17 51°9.177 2°35.412 254.2 14 253 14.7
2006-01-19 08:50:22 51°9.171 2°35.383 254.4 13.9 252 15.1
2006-01-19 08:50:26 51°9.167 2°35.359 254.5 14 253 15.1
2006-01-19 08:50:32 51°9.16 2°35.324 254.7 14 253 15.1
2006-01-19 08:50:37 51°9.154 2°35.294 254.7 14 253 15.1
2006-01-19 08:50:42 51°9.149 2°35.265 255 13.9 253 14.9
2006-01-19 08:50:47 51°9.143 2°35.235 254.9 14 253 15
2006-01-19 08:50:52 51°9.137 2°35.206 254.7 14 253 15
2006-01-19 08:50:57 51°9.131 2°35.176 254.7 14 253 14.4
2006-01-19 08:51:02 51°9.125 2°35.147 254.7 14 253 14.7
2006-01-19 08:51:07 51°9.12 2°35.118 254.6 14 253 15
2006-01-19 08:51:13 51°9.112 2°35.082 254.5 14 252 14.9
2006-01-19 08:51:17 51°9.107 2°35.059 254 14 252 15
2006-01-19 08:51:22 51°9.101 2°35.03 253.6 14 252 15
2006-01-19 08:51:27 51°9.095 2°35 253.6 14 252 14.4
2006-01-19 08:51:32 51°9.089 2°34.971 253.6 14 252 14.8
2006-01-19 08:51:37 51°9.083 2°34.941 253.9 14 252 14.6
2006-01-19 08:51:42 51°9.078 2°34.912 254.3 14 253 14.8
2006-01-19 08:51:46 51°9.073 2°34.888 255.1 14 254 14.8
2006-01-19 08:51:52 51°9.067 2°34.853 255.6 14 254 14.5
2006-01-19 08:51:57 51°9.061 2°34.823 255.7 14 254 14.4
2006-01-19 08:52:02 51°9.056 2°34.794 255.7 13.9 254 14.4
2006-01-19 08:52:06 51°9.051 2°34.77 255.7 14 253 15.2
2006-01-19 08:52:12 51°9.045 2°34.735 255.3 14 253 15
2006-01-19 08:52:17 51°9.039 2°34.706 255.1 13.9 253 15.1
2006-01-19 08:52:22 51°9.033 2°34.676 254.4 14 253 15
2006-01-19 08:52:26 51°9.028 2°34.653 254.4 13.9 252 14.5
2006-01-19 08:52:32 51°9.021 2°34.617 254.3 13.9 252 15.1
2006-01-19 08:52:37 51°9.016 2°34.588 254.6 13.9 253 14.5
2006-01-19 08:52:42 51°9.01 2°34.559 255.1 13.9 253 14.5
2006-01-19 08:52:47 51°9.005 2°34.529 255.7 13.9 255 14.4
2006-01-19 08:52:52 51°9 2°34.5 256.9 13.9 255 14.7
2006-01-19 08:52:57 51°8.996 2°34.47 257.6 13.9 256 14.7
2006-01-19 08:53:02 51°8.991 2°34.44 258.1 13.8 256 13.9
2006-01-19 08:53:07 51°8.986 2°34.411 258 13.9 256 14.1
2006-01-19 08:53:13 51°8.981 2°34.375 258.1 13.9 256 14
2006-01-19 08:53:17 51°8.976 2°34.351 258.1 13.9 255 13.9
2006-01-19 08:53:22 51°8.972 2°34.322 257.8 13.9 256 14.3
2006-01-19 08:53:27 51°8.967 2°34.292 257.6 13.9 255 13.9
2006-01-19 08:53:32 51°8.962 2°34.262 257.4 13.9 255 14.1
2006-01-19 08:53:37 51°8.957 2°34.233 257.3 13.9 255 14.2
2006-01-19 08:53:42 51°8.951 2°34.203 257 13.9 255 13.8
2006-01-19 08:53:47 51°8.946 2°34.173 256.8 13.9 255 14.2
2006-01-19 08:53:52 51°8.941 2°34.144 256.9 13.9 254 13.8
2006-01-19 08:53:57 51°8.936 2°34.114 256.9 13.9 255 14.2
2006-01-19 08:54:02 51°8.931 2°34.085 257.4 13.9 255 14.2
2006-01-19 08:54:07 51°8.927 2°34.055 257.4 13.9 255 14.2
2006-01-19 08:54:12 51°8.922 2°34.025 257.6 13.9 255 13.7
2006-01-19 08:54:17 51°8.917 2°33.996 257.6 13.9 255 13.7
2006-01-19 08:54:22 51°8.912 2°33.966 257.3 13.9 255 14
2006-01-19 08:54:26 51°8.908 2°33.943 257.1 13.5 255 14.3
2006-01-19 08:54:33 51°8.902 2°33.906 257.2 12.5 255 14.4
2006-01-19 08:54:37 51°8.899 2°33.886 257.5 11.8 255 14.5
2006-01-19 08:54:42 51°8.895 2°33.864 257.5 10.9 255 14.4
2006-01-19 08:54:47 51°8.892 2°33.842 257.8 10.1 256 14.5
2006-01-19 08:54:52 51°8.889 2°33.822 259 9.3 258 14.3
2006-01-19 08:54:57 51°8.888 2°33.803 262.7 8.9 261 14.4
2006-01-19 08:55:02 51°8.887 2°33.785 268.5 8.2 268 14.4
2006-01-19 08:55:07 51°8.888 2°33.768 273.5 7.9 273 14.4
2006-01-19 08:55:12 51°8.89 2°33.751 281.1 7.9 278 14.4
2006-01-19 08:55:18 51°8.893 2°33.732 288.8 7.8 287 14.8
2006-01-19 08:55:22 51°8.897 2°33.72 298 7.7 294 15.1
2006-01-19 08:55:27 51°8.903 2°33.706 307.5 7.6 302 15.4
2006-01-19 08:55:32 51°8.91 2°33.695 317.1 7.4 314 15.3
2006-01-19 08:55:37 51°8.918 2°33.685 326.7 7.1 322 15.5
2006-01-19 08:55:42 51°8.927 2°33.678 336.2 6.9 331 15.6
2006-01-19 08:55:47 51°8.936 2°33.673 345.7 6.8 339 15.8
2006-01-19 08:55:52 51°8.945 2°33.671 353.3 6.6 350 15.9
2006-01-19 08:55:57 51°8.954 2°33.671 4.3 6.4 -999 16
2006-01-19 08:56:02 51°8.963 2°33.674 13.7 6.2 10 16
2006-01-19 08:56:07 51°8.971 2°33.678 21.3 6 20 16.1
2006-01-19 08:56:12 51°8.978 2°33.685 32.6 5.9 30 16.1
2006-01-19 08:56:17 51°8.985 2°33.693 40 5.8 39 16.1
2006-01-19 08:56:23 51°8.991 2°33.706 51.1 5.7 49 16.1
2006-01-19 08:56:27 51°8.994 2°33.715 60.3 5.7 62 16
2006-01-19 08:56:32 51°8.996 2°33.727 69.5 5.6 73 15.9
2006-01-19 08:56:37 51°8.996 2°33.739 78.7 5.6 82 15.8
2006-01-19 08:56:43 51°8.995 2°33.754 86 5.6 95 15.7
2006-01-19 08:56:47 51°8.993 2°33.764 97 5.7 106 15.8
2006-01-19 08:56:52 51°8.989 2°33.775 106.2 5.8 114 15.8
2006-01-19 08:56:57 51°8.984 2°33.787 115.2 6.1 122 15.7
2006-01-19 08:57:02 51°8.979 2°33.798 120.9 6.4 126 15.4
2006-01-19 08:57:07 51°8.973 2°33.81 122.8 6.7 126 15.3
2006-01-19 08:57:13 51°8.967 2°33.825 122.2 6.8 123 15
2006-01-19 08:57:18 51°8.963 2°33.839 118.3 6.8 117 14.8
2006-01-19 08:57:22 51°8.961 2°33.85 111.7 6.6 110 14.9
2006-01-19 08:57:26 51°8.959 2°33.86 102.7 6 103 14.6
2006-01-19 08:57:32 51°8.958 2°33.875 96.5 5.6 97 14.4